Weather History for Hallock, MN

Change the Weather History Date:

Monday, January 14, 2013

  Actual Average Record
Temperature  
Mean Temperature -5 °F -  
Max Temperature 3 °F 13 °F 40 °F (1987)
Min Temperature -13 °F -7 °F -36 °F (1972)
Degree Days  
Heating Degree Days 70    
Moisture  
Dew Point -7 °F    
Average Humidity 83    
Maximum Humidity 92    
Minimum Humidity 77    
Precipitation  
Precipitation 0.00 in - - ()
Sea Level Pressure  
Sea Level Pressure 30.20 in    
Wind  
Wind Speed 0 mph (North)    
Max Wind Speed 0 mph    
Max Gust Speed -    
Visibility 10 miles    
Events Snow    
Averages and records for this station are not official NWS values.
T = Trace of Precipitation, MM = Missing Value Source: NWS Daily Summary

Daily Weather History Graph

Daily Weather History Graph

Search for Another Location

Airport:

Trip Planner

Search our weather history database for the weather conditions in past years. The results will help you decide how hot, cold, wet, or windy it might be!

Date:

Astronomy

Jan. 14, 2013 Rise Set
Actual Time 8:15 AM CST 4:58 PM CST
Civil Twilight 7:40 AM CST 5:34 PM CST
Nautical Twilight 7:00 AM CST 6:13 PM CST
Astronomical Twilight 6:23 AM CST 6:51 PM CST
Moon 9:29 AM CST (1/14) 9:08 PM CST (1/14)
Length of Visible Light 9h 54m
Length of Day
8h 42m
Waxing Crescent, 11% of the Moon is Illuminated
Jan 14
Waxing Crescent
Jan 18
First Quarter
Jan 26
Full
Feb 3
Last Quarter
Feb 10
New

Hourly Weather History & Observations

Time (CST) Temp. Dew Point Humidity Pressure Visibility Wind Dir Wind Speed Gust Speed Precip Events Conditions
12:14 AM 3.2 °F -0.4 °F 85% 30.20 in 10.0 mi Calm Calm - N/A   Overcast
12:34 AM 3.2 °F -0.4 °F 85% 30.20 in 10.0 mi Calm Calm - N/A   Overcast
12:54 AM 3.2 °F -0.4 °F 85% 30.20 in 10.0 mi Calm Calm - N/A   Overcast
1:14 AM 3.2 °F -0.4 °F 85% 30.20 in 7.0 mi Calm Calm - N/A   Overcast
1:34 AM 3.2 °F -0.4 °F 85% 30.20 in 10.0 mi Calm Calm - N/A   Overcast
1:54 AM 3.2 °F -0.4 °F 85% 30.21 in 10.0 mi Calm Calm - N/A   Overcast
2:14 AM 3.2 °F -0.4 °F 85% 30.20 in 10.0 mi Calm Calm - N/A   Overcast
2:34 AM 1.4 °F -2.2 °F 85% 30.21 in 10.0 mi Calm Calm - N/A   Overcast
2:54 AM 1.4 °F -2.2 °F 85% 30.21 in 10.0 mi Calm Calm - N/A   Overcast
3:14 AM -2.2 °F -5.8 °F 85% 30.21 in 10.0 mi Calm Calm - N/A   Scattered Clouds
3:33 AM -4.0 °F -7.6 °F 85% 30.21 in 10.0 mi Calm Calm - N/A   Clear
3:54 AM -5.8 °F -9.4 °F 84% 30.21 in 10.0 mi Calm Calm - N/A   Clear
4:14 AM -7.6 °F -11.2 °F 84% 30.21 in 10.0 mi Calm Calm - N/A   Clear
4:33 AM -9.4 °F -13.0 °F 84% 30.20 in 10.0 mi Calm Calm - N/A   Clear
4:54 AM -9.4 °F -14.8 °F 77% 30.20 in 10.0 mi Calm Calm - N/A   Clear
5:14 AM -11.2 °F -14.8 °F 84% 30.19 in 10.0 mi Calm Calm - N/A   Clear
5:34 AM -11.2 °F -14.8 °F 84% 30.19 in 10.0 mi Calm Calm - N/A   Clear
5:54 AM -11.2 °F -16.6 °F 77% 30.20 in 10.0 mi Calm Calm - N/A   Clear
6:14 AM -11.2 °F -16.6 °F 77% 30.21 in 10.0 mi Calm Calm - N/A   Clear
6:34 AM -11.2 °F -16.6 °F 77% 30.21 in 10.0 mi Calm Calm - N/A   Clear
6:52 AM -11.2 °F -16.6 °F 77% 30.21 in 10.0 mi Calm Calm - N/A   Clear
7:14 AM -11.2 °F -14.8 °F 84% 30.22 in 10.0 mi Calm Calm - N/A   Clear
7:34 AM -11.2 °F -16.6 °F 77% 30.22 in 10.0 mi Calm Calm - N/A   Clear
7:54 AM -13.0 °F -16.6 °F 84% 30.22 in 10.0 mi Calm Calm - N/A   Clear
8:14 AM -11.2 °F -14.8 °F 84% 30.23 in 10.0 mi Calm Calm - N/A   Clear
8:34 AM -11.2 °F -16.6 °F 77% 30.23 in 10.0 mi Calm Calm - N/A   Clear
8:53 AM -11.2 °F -16.6 °F 77% 30.24 in 10.0 mi Calm Calm - N/A   Clear
9:14 AM -9.4 °F -13.0 °F 84% 30.24 in 10.0 mi Calm Calm - N/A   Clear
9:34 AM -9.4 °F -14.8 °F 77% 30.24 in 10.0 mi Calm Calm - N/A   Clear
9:54 AM -7.6 °F -11.2 °F 84% 30.25 in 10.0 mi Calm Calm - N/A   Clear
10:14 AM -5.8 °F -9.4 °F 84% 30.25 in 10.0 mi Calm Calm - N/A   Clear
10:34 AM -5.8 °F -9.4 °F 84% 30.25 in 10.0 mi Calm Calm - N/A   Clear
10:54 AM -5.8 °F -9.4 °F 84% 30.25 in 10.0 mi Calm Calm - N/A   Clear
11:34 AM -2.2 °F -7.6 °F 78% 30.25 in 10.0 mi Calm Calm - N/A   Clear
11:54 AM -2.2 °F -7.6 °F 78% 30.25 in 10.0 mi Calm Calm - N/A   Clear
12:14 PM -2.2 °F -5.8 °F 85% 30.25 in 10.0 mi Calm Calm - N/A   Scattered Clouds
12:34 PM -0.4 °F -5.8 °F 78% 30.23 in 10.0 mi Calm Calm - N/A Snow Light Snow
12:54 PM -0.4 °F -5.8 °F 78% 30.23 in 10.0 mi Calm Calm - N/A Snow Light Snow
1:14 PM -0.4 °F -5.8 °F 78% 30.23 in 10.0 mi Calm Calm - N/A Snow Light Snow
1:34 PM -0.4 °F -5.8 °F 78% 30.22 in 7.0 mi Calm Calm - N/A   Mostly Cloudy
1:54 PM 1.4 °F -4.0 °F 78% 30.22 in 10.0 mi Calm Calm - N/A   Scattered Clouds
2:14 PM 1.4 °F -4.0 °F 78% 30.22 in 10.0 mi Calm Calm - N/A   Clear
2:34 PM 1.4 °F -4.0 °F 78% 30.22 in 10.0 mi Calm Calm - N/A   Clear
2:54 PM 1.4 °F -2.2 °F 85% 30.22 in 10.0 mi Calm Calm - N/A   Clear
3:14 PM 1.4 °F -2.2 °F 85% 30.22 in 10.0 mi Calm Calm - N/A   Scattered Clouds
3:34 PM -0.4 °F -4.0 °F 85% 30.21 in 10.0 mi Calm Calm - N/A   Mostly Cloudy
4:13 PM -0.4 °F -4.0 °F 85% 30.20 in 10.0 mi Calm Calm - N/A   Scattered Clouds
4:34 PM -2.2 °F -5.8 °F 85% 30.20 in 10.0 mi Calm Calm - N/A   Clear
4:54 PM -2.2 °F -7.6 °F 78% 30.20 in 10.0 mi Calm Calm - N/A   Scattered Clouds
5:13 PM -2.2 °F -7.6 °F 78% 30.19 in 10.0 mi Calm Calm - N/A   Scattered Clouds
5:34 PM -4.0 °F -7.6 °F 85% 30.19 in 10.0 mi Calm Calm - N/A   Clear
5:53 PM -5.8 °F -9.4 °F 84% 30.19 in 10.0 mi Calm Calm - N/A   Clear
6:14 PM -5.8 °F -9.4 °F 84% 30.18 in 10.0 mi Calm Calm - N/A   Scattered Clouds
6:34 PM -5.8 °F -9.4 °F 84% 30.18 in 10.0 mi Calm Calm - N/A   Clear
6:54 PM -7.6 °F -9.4 °F 92% 30.18 in 10.0 mi Calm Calm - N/A   Clear
7:14 PM -4.0 °F -7.6 °F 85% 30.18 in 10.0 mi Calm Calm - N/A   Mostly Cloudy
7:34 PM -2.2 °F -5.8 °F 85% 30.18 in 10.0 mi Calm Calm - N/A   Overcast
7:54 PM -0.4 °F -4.0 °F 85% 30.17 in 10.0 mi Calm Calm - N/A   Overcast
8:14 PM -2.2 °F -5.8 °F 85% 30.16 in 10.0 mi Calm Calm - N/A   Mostly Cloudy
8:34 PM -2.2 °F -7.6 °F 78% 30.16 in 10.0 mi Calm Calm - N/A   Mostly Cloudy
8:54 PM -2.2 °F -5.8 °F 85% 30.16 in 10.0 mi Calm Calm - N/A   Overcast
9:14 PM -0.4 °F -4.0 °F 85% 30.16 in 10.0 mi Calm Calm - N/A   Overcast
9:34 PM -0.4 °F -4.0 °F 85% 30.15 in 10.0 mi Calm Calm - N/A   Overcast
9:54 PM 1.4 °F -2.2 °F 85% 30.15 in 10.0 mi Calm Calm - N/A   Overcast
10:14 PM 1.4 °F -2.2 °F 85% 30.14 in 10.0 mi Calm Calm - N/A   Overcast
10:34 PM 1.4 °F -2.2 °F 85% 30.13 in 10.0 mi Calm Calm - N/A   Overcast
10:54 PM 1.4 °F -2.2 °F 85% 30.13 in 10.0 mi Calm Calm - N/A   Overcast
11:14 PM 1.4 °F -2.2 °F 85% 30.13 in 10.0 mi Calm Calm - N/A   Overcast
11:34 PM 1.4 °F -2.2 °F 85% 30.13 in 10.0 mi Calm Calm - N/A   Overcast
11:54 PM 1.4 °F -2.2 °F 85% 30.12 in 10.0 mi Calm Calm - N/A   Overcast